Weather History for Cape Girardeau, MO

Change the Weather History Date:

Friday, April 5, 2013

  Actual Average Record
Temperature  
Mean Temperature 50 °F 54 °F  
Max Temperature 70 °F 65 °F 85 °F (1967)
Min Temperature 30 °F 42 °F 27 °F (1966)
Degree Days  
Heating Degree Days 15 12  
Month to date heating degree days 99 63  
Since 1 July heating degree days 4060 4119  
Cooling Degree Days 0 0  
Month to date cooling degree days 0 0  
Year to date cooling degree days 0 4  
Moisture  
Dew Point 34 °F    
Average Humidity 59    
Maximum Humidity 89    
Minimum Humidity 28    
Precipitation  
Precipitation 0.00 in 0.13 in 2.18 in (1964)
Month to date precipitation 0.00 0.68  
Year to date precipitation 9.17 11.96  
Sea Level Pressure  
Sea Level Pressure 30.10 in    
Wind  
Wind Speed 4 mph (NW)    
Max Wind Speed 16 mph    
Max Gust Speed 20 mph    
Visibility 10 miles    
Events      
T = Trace of Precipitation, MM = Missing Value Source: NWS Daily Summary

Daily Weather History Graph

Daily Weather History Graph

Search for Another Location

Airport:

Trip Planner

Search our weather history database for the weather conditions in past years. The results will help you decide how hot, cold, wet, or windy it might be!

Date:

Astronomy

Apr. 05, 2013 Rise Set
Actual Time 6:37 AM CDT 7:24 PM CDT
Civil Twilight 6:11 AM CDT 7:51 PM CDT
Nautical Twilight 5:40 AM CDT 8:22 PM CDT
Astronomical Twilight 5:07 AM CDT 8:54 PM CDT
Moon 3:38 AM CDT (4/5) 2:54 PM CDT (4/5)
Length of Visible Light 13h 39m
Length of Day
12h 47m
Waning Crescent, 23% of the Moon is Illuminated
Apr 5
Waning Crescent
Apr 10
New
Apr 18
First Quarter
Apr 25
Full
May 2
Last Quarter

Hourly Weather History & Observations

Time (CDT) Temp. Windchill Dew Point Humidity Pressure Visibility Wind Dir Wind Speed Gust Speed Precip Events Conditions
12:53 AM 34.0 °F 31.0 °F 30.0 °F 85% 30.06 in 10.0 mi WSW 3.5 mph - N/A   Clear
1:53 AM 35.1 °F 31.0 °F 30.0 °F 82% 30.07 in 10.0 mi West 4.6 mph - N/A   Clear
2:53 AM 35.1 °F 31.0 °F 30.0 °F 82% 30.07 in 10.0 mi West 4.6 mph - N/A   Clear
3:53 AM 32.0 °F 28.7 °F 28.0 °F 85% 30.09 in 10.0 mi WSW 3.5 mph - N/A   Clear
4:53 AM 35.1 °F - 28.0 °F 76% 30.10 in 10.0 mi Calm Calm - N/A   Clear
5:53 AM 33.1 °F - 28.0 °F 82% 30.12 in 10.0 mi Calm Calm - N/A   Clear
6:53 AM 30.0 °F - 27.0 °F 88% 30.14 in 10.0 mi Calm Calm - N/A   Clear
7:53 AM 36.0 °F - 32.0 °F 86% 30.16 in 10.0 mi Calm Calm - N/A   Clear
8:53 AM 44.1 °F - 34.0 °F 68% 30.15 in 10.0 mi Calm Calm - N/A   Clear
9:53 AM 53.1 °F - 34.0 °F 48% 30.15 in 10.0 mi WNW 5.8 mph - N/A   Clear
10:53 AM 59.0 °F - 34.0 °F 39% 30.15 in 10.0 mi Calm Calm - N/A   Clear
11:53 AM 63.0 °F - 35.1 °F 35% 30.14 in 9.0 mi Variable 3.5 mph - N/A   Clear
12:53 PM 66.9 °F - 33.1 °F 28% 30.14 in 10.0 mi NW 11.5 mph 17.3 mph N/A   Clear
1:53 PM 68.0 °F - 36.0 °F 31% 30.11 in 10.0 mi NNW 12.7 mph 19.6 mph N/A   Clear
2:53 PM 69.1 °F - 37.0 °F 31% 30.08 in 10.0 mi NNW 10.4 mph - N/A   Clear
3:53 PM 69.1 °F - 35.1 °F 29% 30.06 in 10.0 mi North 10.4 mph - N/A   Clear
4:53 PM 70.0 °F - 36.0 °F 29% 30.05 in 10.0 mi North 10.4 mph - N/A   Clear
5:53 PM 69.1 °F - 35.1 °F 29% 30.05 in 10.0 mi North 8.1 mph - N/A   Clear
6:53 PM 66.0 °F - 36.0 °F 33% 30.05 in 10.0 mi ENE 4.6 mph - N/A   Clear
7:53 PM 59.0 °F - 39.9 °F 49% 30.07 in 10.0 mi Calm Calm - N/A   Clear
8:53 PM 54.0 °F - 41.0 °F 62% 30.09 in 10.0 mi Calm Calm - N/A   Clear
9:53 PM 51.1 °F - 39.9 °F 66% 30.11 in 10.0 mi Calm Calm - N/A   Clear
10:53 PM 46.9 °F - 39.9 °F 77% 30.09 in 10.0 mi ESE 5.8 mph - N/A   Clear
11:53 PM 46.0 °F 43.1 °F 39.0 °F 76% 30.09 in 10.0 mi SSE 5.8 mph - N/A   Clear